PCM1035 KSAN-KLAX

Flight info

Callsign PCM1035
Flight time 0h 48m
Altitude 8000
Route CWARD2 SLI
Aircraft C208/L-SDFGR/C

Departure

Time 2026-04-26 03:50
Airport San Diego International Airport (KSAN)

Arrival

Time 2026-04-26 04:38
Airport Los Angeles International Airport (KLAX)
Time Latitude Longitude Altitude Speed Heading
2026-04-26 03:10 32.73708 -117.18685 20 ft 0 kts 233°
2026-04-26 03:34 32.73707 -117.18686 20 ft 2 kts 217°
2026-04-26 03:35 32.73708 -117.18677 21 ft 2 kts 28°
2026-04-26 03:35 32.73724 -117.18666 21 ft 4 kts 41°
2026-04-26 03:35 32.73732 -117.18645 22 ft 2 kts 94°
2026-04-26 03:35 32.73713 -117.18622 22 ft 6 kts 147°
2026-04-26 03:36 32.73674 -117.18590 22 ft 4 kts 144°
2026-04-26 03:36 32.73659 -117.18578 24 ft 1 kts 144°
2026-04-26 03:36 32.73634 -117.18555 21 ft 0 kts 143°
2026-04-26 03:39 32.73605 -117.18531 21 ft 9 kts 144°
2026-04-26 03:39 32.73534 -117.18469 22 ft 10 kts 144°
2026-04-26 03:40 32.73507 -117.18446 23 ft 5 kts 144°
2026-04-26 03:40 32.73459 -117.18405 23 ft 8 kts 145°
2026-04-26 03:40 32.73393 -117.18397 24 ft 7 kts 198°
2026-04-26 03:40 32.73344 -117.18398 23 ft 7 kts 152°
2026-04-26 03:41 32.73322 -117.18354 22 ft 8 kts 104°
2026-04-26 03:41 32.73306 -117.18285 22 ft 6 kts 106°
2026-04-26 03:41 32.73293 -117.18230 22 ft 12 kts 106°
2026-04-26 03:41 32.73275 -117.18159 22 ft 7 kts 106°
2026-04-26 03:42 32.73253 -117.18068 23 ft 10 kts 105°
2026-04-26 03:42 32.73230 -117.17973 23 ft 11 kts 108°
2026-04-26 03:42 32.73211 -117.17893 20 ft 6 kts 105°
2026-04-26 03:42 32.73200 -117.17848 23 ft 9 kts 106°
2026-04-26 03:43 32.73183 -117.17776 24 ft 13 kts 105°
2026-04-26 03:43 32.73165 -117.17705 23 ft 6 kts 106°
2026-04-26 03:43 32.73142 -117.17659 21 ft 6 kts 180°
2026-04-26 03:43 32.73134 -117.17661 21 ft 0 kts 195°
2026-04-26 03:47 32.73119 -117.17666 21 ft 0 kts 195°
2026-04-26 03:47 32.73084 -117.17678 20 ft 12 kts 195°
2026-04-26 03:47 32.73055 -117.17728 19 ft 0 kts 286°
2026-04-26 03:48 32.73055 -117.17729 19 ft 2 kts 286°
2026-04-26 03:48 32.73088 -117.17861 19 ft 34 kts 286°
2026-04-26 03:48 32.73181 -117.18252 24 ft 62 kts 286°
2026-04-26 03:48 32.73319 -117.18812 95 ft 73 kts 284°
2026-04-26 03:49 32.73436 -117.19399 223 ft 73 kts 279°
2026-04-26 03:49 32.73567 -117.19992 305 ft 80 kts 288°
2026-04-26 03:49 32.73736 -117.20669 424 ft 91 kts 285°
2026-04-26 03:49 32.73933 -117.21430 585 ft 101 kts 292°
2026-04-26 03:50 32.74334 -117.22104 830 ft 99 kts 302°
2026-04-26 03:50 32.74722 -117.22777 1115 ft 99 kts 300°
2026-04-26 03:50 32.75106 -117.23450 1373 ft 99 kts 300°
2026-04-26 03:50 32.75496 -117.24123 1633 ft 101 kts 300°
2026-04-26 03:51 32.75892 -117.24815 1891 ft 103 kts 299°
2026-04-26 03:51 32.76299 -117.25520 2143 ft 104 kts 299°
2026-04-26 03:51 32.76692 -117.26202 2392 ft 105 kts 299°
2026-04-26 03:51 32.77119 -117.26949 2654 ft 106 kts 298°
2026-04-26 03:52 32.77535 -117.27671 2912 ft 106 kts 299°
2026-04-26 03:52 32.77946 -117.28388 3168 ft 105 kts 298°
2026-04-26 03:52 32.78355 -117.29103 3410 ft 106 kts 299°
2026-04-26 03:52 32.78775 -117.29836 3668 ft 107 kts 299°
2026-04-26 03:53 32.79194 -117.30569 3921 ft 107 kts 299°
2026-04-26 03:53 32.79601 -117.31278 4172 ft 108 kts 299°
2026-04-26 03:53 32.80052 -117.31998 4424 ft 109 kts 304°
2026-04-26 03:53 32.80514 -117.32718 4686 ft 110 kts 302°
2026-04-26 03:54 32.80978 -117.33439 4940 ft 112 kts 303°
2026-04-26 03:54 32.81452 -117.34175 5189 ft 114 kts 302°
2026-04-26 03:54 32.81936 -117.34927 5451 ft 116 kts 302°
2026-04-26 03:54 32.82428 -117.35691 5705 ft 117 kts 303°
2026-04-26 03:55 32.82922 -117.36454 5962 ft 115 kts 302°
2026-04-26 03:55 32.83405 -117.37201 6212 ft 113 kts 302°
2026-04-26 03:55 32.83877 -117.37934 6460 ft 111 kts 302°
2026-04-26 03:55 32.84343 -117.38657 6698 ft 109 kts 302°
2026-04-26 03:56 32.84802 -117.39369 6943 ft 107 kts 301°
2026-04-26 03:56 32.85245 -117.40055 7178 ft 106 kts 301°
2026-04-26 03:56 32.85687 -117.40740 7413 ft 104 kts 300°
2026-04-26 03:56 32.86120 -117.41415 7654 ft 101 kts 300°
2026-04-26 03:57 32.86544 -117.42074 7872 ft 99 kts 300°
2026-04-26 03:57 32.86977 -117.42754 7972 ft 111 kts 300°
2026-04-26 03:57 32.87472 -117.43523 7988 ft 126 kts 301°
2026-04-26 03:57 32.88027 -117.44381 7986 ft 135 kts 302°
2026-04-26 03:58 32.88611 -117.45286 7984 ft 141 kts 302°
2026-04-26 03:58 32.89218 -117.46226 7984 ft 144 kts 302°
2026-04-26 03:58 32.89834 -117.47183 7980 ft 146 kts 302°
2026-04-26 03:58 32.90453 -117.48146 7980 ft 147 kts 302°
2026-04-26 03:59 32.91078 -117.49117 7980 ft 147 kts 302°
2026-04-26 03:59 32.91701 -117.50086 7979 ft 147 kts 302°
2026-04-26 03:59 32.92324 -117.51055 7978 ft 147 kts 302°
2026-04-26 03:59 32.92947 -117.52026 7976 ft 148 kts 302°
2026-04-26 04:00 32.93568 -117.52991 7976 ft 149 kts 302°
2026-04-26 04:00 32.94194 -117.53968 7975 ft 148 kts 302°
2026-04-26 04:00 32.94810 -117.54927 7975 ft 148 kts 302°
2026-04-26 04:00 32.95436 -117.55903 7973 ft 148 kts 302°
2026-04-26 04:01 32.96061 -117.56877 7976 ft 148 kts 302°
2026-04-26 04:01 32.96687 -117.57853 7975 ft 148 kts 302°
2026-04-26 04:01 32.97309 -117.58823 7970 ft 147 kts 302°
2026-04-26 04:01 32.97932 -117.59793 7970 ft 148 kts 302°
2026-04-26 04:02 32.98555 -117.60768 7968 ft 148 kts 302°
2026-04-26 04:02 32.99183 -117.61746 7970 ft 148 kts 302°
2026-04-26 04:02 32.99811 -117.62726 7973 ft 149 kts 302°
2026-04-26 04:02 33.00437 -117.63704 7973 ft 149 kts 302°
2026-04-26 04:03 33.01065 -117.64685 7972 ft 149 kts 302°
2026-04-26 04:03 33.01691 -117.65663 7974 ft 148 kts 302°
2026-04-26 04:03 33.02319 -117.66644 7973 ft 148 kts 302°
2026-04-26 04:03 33.02942 -117.67618 7970 ft 148 kts 302°
2026-04-26 04:04 33.03558 -117.68581 7970 ft 148 kts 302°
2026-04-26 04:04 33.04181 -117.69556 7970 ft 148 kts 302°
2026-04-26 04:04 33.04805 -117.70532 7968 ft 148 kts 302°
2026-04-26 04:04 33.05429 -117.71507 7994 ft 147 kts 302°
2026-04-26 04:05 33.06049 -117.72479 8003 ft 147 kts 302°
2026-04-26 04:05 33.06749 -117.73381 8004 ft 151 kts 314°
2026-04-26 04:05 33.07562 -117.74177 7999 ft 151 kts 314°
2026-04-26 04:05 33.08362 -117.74985 7999 ft 150 kts 313°
2026-04-26 04:06 33.09160 -117.75797 8004 ft 151 kts 313°
2026-04-26 04:06 33.09948 -117.76598 8005 ft 151 kts 313°
2026-04-26 04:06 33.10746 -117.77410 7997 ft 151 kts 313°
2026-04-26 04:06 33.11544 -117.78222 7997 ft 151 kts 313°
2026-04-26 04:07 33.12343 -117.79035 7999 ft 151 kts 313°
2026-04-26 04:07 33.13142 -117.79847 7997 ft 151 kts 313°
2026-04-26 04:07 33.13940 -117.80660 7993 ft 151 kts 313°
2026-04-26 04:07 33.14738 -117.81472 7993 ft 151 kts 313°
2026-04-26 04:08 33.15534 -117.82282 7995 ft 151 kts 313°
2026-04-26 04:08 33.16331 -117.83094 7995 ft 151 kts 313°
2026-04-26 04:08 33.17102 -117.83879 7994 ft 151 kts 313°
2026-04-26 04:08 33.17875 -117.84667 7997 ft 151 kts 313°
2026-04-26 04:09 33.18662 -117.85469 7998 ft 151 kts 313°
2026-04-26 04:09 33.19511 -117.86211 7993 ft 155 kts 329°
2026-04-26 04:09 33.20586 -117.86506 7991 ft 160 kts 342°
2026-04-26 04:09 33.21674 -117.86771 7992 ft 159 kts 341°
2026-04-26 04:10 33.22762 -117.87045 7995 ft 160 kts 341°
2026-04-26 04:10 33.23849 -117.87316 8003 ft 160 kts 341°
2026-04-26 04:10 33.24936 -117.87586 8000 ft 159 kts 341°
2026-04-26 04:10 33.26022 -117.87856 7993 ft 159 kts 341°
2026-04-26 04:11 33.27104 -117.88125 7995 ft 159 kts 341°
2026-04-26 04:11 33.28192 -117.88396 7998 ft 159 kts 341°
2026-04-26 04:11 33.29276 -117.88665 7995 ft 159 kts 341°
2026-04-26 04:11 33.30355 -117.88935 7995 ft 159 kts 341°
2026-04-26 04:12 33.31442 -117.89205 8004 ft 160 kts 341°
2026-04-26 04:12 33.32468 -117.89461 7998 ft 160 kts 341°
2026-04-26 04:12 33.33558 -117.89732 7998 ft 160 kts 341°
2026-04-26 04:12 33.34648 -117.90004 8001 ft 160 kts 341°
2026-04-26 04:13 33.35735 -117.90275 7999 ft 160 kts 341°
2026-04-26 04:13 33.36819 -117.90545 8002 ft 159 kts 341°
2026-04-26 04:13 33.37908 -117.90817 7998 ft 160 kts 341°
2026-04-26 04:13 33.38719 -117.91049 7999 ft 158 kts 336°
2026-04-26 04:14 33.39816 -117.91461 8001 ft 158 kts 336°
2026-04-26 04:14 33.40844 -117.91830 8002 ft 158 kts 336°
2026-04-26 04:14 33.41898 -117.92210 8003 ft 158 kts 336°
2026-04-26 04:14 33.42896 -117.92571 8008 ft 158 kts 336°
2026-04-26 04:15 33.43950 -117.92953 8009 ft 158 kts 336°
2026-04-26 04:15 33.45005 -117.93337 8008 ft 159 kts 336°
2026-04-26 04:15 33.46063 -117.93720 8007 ft 159 kts 336°
2026-04-26 04:15 33.47122 -117.94105 8006 ft 159 kts 336°
2026-04-26 04:16 33.48163 -117.94484 8010 ft 159 kts 336°
2026-04-26 04:16 33.49216 -117.94867 8009 ft 158 kts 336°
2026-04-26 04:16 33.50269 -117.95251 8012 ft 158 kts 336°
2026-04-26 04:16 33.51321 -117.95633 8011 ft 158 kts 337°
2026-04-26 04:17 33.52372 -117.96013 8013 ft 157 kts 336°
2026-04-26 04:17 33.53420 -117.96396 8011 ft 157 kts 336°
2026-04-26 04:17 33.54470 -117.96778 8009 ft 158 kts 336°
2026-04-26 04:17 33.55522 -117.97161 8011 ft 158 kts 336°
2026-04-26 04:18 33.56358 -117.97466 8014 ft 159 kts 336°
2026-04-26 04:18 33.57415 -117.97851 8017 ft 159 kts 336°
2026-04-26 04:18 33.58476 -117.98236 8018 ft 159 kts 336°
2026-04-26 04:18 33.59508 -117.98613 8018 ft 160 kts 336°
2026-04-26 04:19 33.60572 -117.99000 8022 ft 159 kts 336°
2026-04-26 04:19 33.61638 -117.99389 8021 ft 160 kts 336°
2026-04-26 04:19 33.62692 -117.99774 7921 ft 162 kts 336°
2026-04-26 04:19 33.63766 -118.00166 7730 ft 160 kts 336°
2026-04-26 04:20 33.64824 -118.00553 7489 ft 162 kts 337°
2026-04-26 04:20 33.65895 -118.00944 7246 ft 163 kts 337°
2026-04-26 04:20 33.66974 -118.01337 7001 ft 158 kts 338°
2026-04-26 04:20 33.67998 -118.01707 6706 ft 150 kts 338°
2026-04-26 04:21 33.68989 -118.02070 6449 ft 148 kts 338°
2026-04-26 04:21 33.69939 -118.02417 6199 ft 146 kts 338°
2026-04-26 04:21 33.70910 -118.02773 5946 ft 145 kts 338°
2026-04-26 04:21 33.71542 -118.03004 5765 ft 145 kts 338°
2026-04-26 04:22 33.72504 -118.03358 5520 ft 147 kts 338°
2026-04-26 04:22 33.73482 -118.03716 5265 ft 147 kts 338°
2026-04-26 04:22 33.74462 -118.04074 5023 ft 147 kts 338°
2026-04-26 04:22 33.75414 -118.04419 4978 ft 137 kts 337°
2026-04-26 04:23 33.76305 -118.04743 4969 ft 131 kts 339°
2026-04-26 04:23 33.77212 -118.04882 4964 ft 132 kts 350°
2026-04-26 04:23 33.78123 -118.04967 4969 ft 131 kts 350°
2026-04-26 04:23 33.79031 -118.05058 4970 ft 131 kts 350°
2026-04-26 04:24 33.79942 -118.05143 4970 ft 131 kts 350°
2026-04-26 04:24 33.80851 -118.05231 4963 ft 128 kts 350°
2026-04-26 04:24 33.81752 -118.05315 4729 ft 132 kts 349°
2026-04-26 04:24 33.82670 -118.05449 4474 ft 133 kts 348°
2026-04-26 04:25 33.83596 -118.05587 4219 ft 134 kts 348°
2026-04-26 04:25 33.84527 -118.05736 3970 ft 135 kts 347°
2026-04-26 04:25 33.85461 -118.05887 3718 ft 136 kts 348°
2026-04-26 04:25 33.86383 -118.06042 3607 ft 128 kts 348°
2026-04-26 04:26 33.87123 -118.06161 3594 ft 121 kts 347°
2026-04-26 04:26 33.87665 -118.06248 3593 ft 116 kts 348°
2026-04-26 04:26 33.88450 -118.06366 3596 ft 112 kts 348°
2026-04-26 04:26 33.89216 -118.06485 3594 ft 110 kts 348°
2026-04-26 04:27 33.90219 -118.06633 3595 ft 109 kts 348°
2026-04-26 04:27 33.90726 -118.06714 3595 ft 108 kts 347°
2026-04-26 04:27 33.91475 -118.06832 3596 ft 109 kts 347°
2026-04-26 04:27 33.92225 -118.06950 3594 ft 109 kts 348°
2026-04-26 04:28 33.92966 -118.07067 3596 ft 109 kts 348°
2026-04-26 04:28 33.93715 -118.07188 3596 ft 109 kts 347°
2026-04-26 04:28 33.94437 -118.07394 3595 ft 104 kts 323°
2026-04-26 04:28 33.94823 -118.08091 3599 ft 101 kts 291°
2026-04-26 04:29 33.95125 -118.08856 3605 ft 101 kts 293°
2026-04-26 04:29 33.95428 -118.09621 3604 ft 101 kts 293°
2026-04-26 04:29 33.95728 -118.10390 3605 ft 102 kts 292°
2026-04-26 04:29 33.96028 -118.11159 3610 ft 102 kts 292°
2026-04-26 04:30 33.96330 -118.11934 3608 ft 102 kts 293°
2026-04-26 04:30 33.96562 -118.12727 3630 ft 99 kts 268°
2026-04-26 04:30 33.96460 -118.13534 3658 ft 98 kts 259°
2026-04-26 04:30 33.96326 -118.14342 3654 ft 99 kts 258°
2026-04-26 04:31 33.96175 -118.15157 3656 ft 100 kts 258°
2026-04-26 04:31 33.96048 -118.15982 3657 ft 101 kts 260°
2026-04-26 04:31 33.95939 -118.16816 3641 ft 102 kts 261°
2026-04-26 04:31 33.95829 -118.17698 3534 ft 109 kts 262°
2026-04-26 04:32 33.95736 -118.18622 3389 ft 113 kts 263°
2026-04-26 04:32 33.95635 -118.19568 3238 ft 115 kts 262°
2026-04-26 04:32 33.95542 -118.20526 3079 ft 115 kts 262°
2026-04-26 04:32 33.95442 -118.21476 2925 ft 116 kts 263°
2026-04-26 04:33 33.95344 -118.22448 2767 ft 117 kts 262°
2026-04-26 04:33 33.95247 -118.23418 2609 ft 117 kts 263°
2026-04-26 04:33 33.95145 -118.24384 2454 ft 116 kts 262°
2026-04-26 04:33 33.95053 -118.25341 2298 ft 115 kts 262°
2026-04-26 04:34 33.94955 -118.26257 2151 ft 115 kts 263°
2026-04-26 04:34 33.94854 -118.27261 1990 ft 119 kts 262°
2026-04-26 04:34 33.94755 -118.28248 1835 ft 118 kts 263°
2026-04-26 04:34 33.94650 -118.29247 1671 ft 121 kts 262°
2026-04-26 04:35 33.94553 -118.30240 1503 ft 123 kts 263°
2026-04-26 04:35 33.94445 -118.31262 1332 ft 123 kts 262°
2026-04-26 04:35 33.94346 -118.32282 1162 ft 122 kts 262°
2026-04-26 04:35 33.94240 -118.33279 985 ft 119 kts 261°
2026-04-26 04:36 33.94144 -118.34270 818 ft 118 kts 262°
2026-04-26 04:36 33.94045 -118.35193 673 ft 101 kts 262°
2026-04-26 04:36 33.93976 -118.35894 539 ft 76 kts 261°
2026-04-26 04:36 33.93911 -118.36497 442 ft 71 kts 263°
2026-04-26 04:37 33.93860 -118.37086 391 ft 72 kts 264°
2026-04-26 04:37 33.93795 -118.37685 305 ft 72 kts 263°
2026-04-26 04:37 33.93737 -118.38284 177 ft 71 kts 263°
2026-04-26 04:37 33.93679 -118.38829 123 ft 57 kts 264°
2026-04-26 04:38 33.93642 -118.39207 124 ft 32 kts 263°
2026-04-26 04:38 33.93621 -118.39346 122 ft 8 kts 234°
2026-04-26 04:38 33.93548 -118.39372 122 ft 10 kts 182°
2026-04-26 04:38 33.93516 -118.39371 124 ft 0 kts 178°
2026-04-26 04:39 33.93503 -118.39338 124 ft 10 kts 76°
2026-04-26 04:39 33.93515 -118.39228 124 ft 19 kts 81°
2026-04-26 04:39 33.93529 -118.39103 124 ft 12 kts 81°
2026-04-26 04:39 33.93538 -118.39008 122 ft 9 kts 83°
2026-04-26 04:40 33.93548 -118.38913 124 ft 17 kts 83°
2026-04-26 04:40 33.93564 -118.38765 124 ft 16 kts 82°
2026-04-26 04:40 33.93574 -118.38660 124 ft 10 kts 82°
2026-04-26 04:40 33.93583 -118.38575 124 ft 12 kts 82°
2026-04-26 04:41 33.93565 -118.38514 124 ft 5 kts 158°
2026-04-26 04:41 33.93523 -118.38510 123 ft 8 kts 187°
2026-04-26 04:41 33.93459 -118.38513 124 ft 14 kts 179°
2026-04-26 04:41 33.93363 -118.38512 122 ft 12 kts 178°
2026-04-26 04:42 33.93332 -118.38523 123 ft 3 kts 277°
2026-04-26 04:42 33.93333 -118.38546 122 ft 3 kts 269°
2026-04-26 04:42 33.93332 -118.38575 124 ft 2 kts 269°
2026-04-26 04:42 33.93332 -118.38585 124 ft 0 kts 269°